Volver al catálogo

YAOGAN-40 02A

ActivoMilitarPO
NORAD 63918·PAYLOAD·🇨🇳 China

Lanzado May 11, 2025 desde Taiyuan Satellite Launch Center

Loading…

Próximos Pases (próximas 24 horas)

TLE

ActualizadoSource: Space-Track

Época: Sep 14, 2026, 13:01 UTC

1 63918U 25096A   26257.54237663  .00000100  00000-0  43931-4 0  9992
2 63918  85.9984 147.9614 0002072  96.7604 263.3815 14.12461715 69181

Sigue YAOGAN-40 02A en tiempo real con AllMySat

Download on the App Store